PBD6512 USPP-UUEE

Flight info

Callsign PBD6512
Flight time 1h 56m
Altitude 36000
Route K0822F360 GEBS1M GEBSI M60 BAPTA P874 BAPUN N181 GOBOM T187 ROMTA ROMT3E
Aircraft B738/M-VGDW/C

Departure

Time 2026-05-07 18:08
Airport Perm International Airport (USPP)

Arrival

Time 2026-05-07 20:05
Airport Sheremetyevo International Airport (UUEE)
Time Latitude Longitude Altitude Speed Heading
2026-05-07 17:43 57.91879 56.02034 396 ft 0 kts 316°
2026-05-07 17:56 57.91871 56.02049 395 ft 4 kts 318°
2026-05-07 17:57 57.91852 56.02084 393 ft 4 kts 302°
2026-05-07 17:57 57.91847 56.02124 395 ft 4 kts 239°
2026-05-07 17:57 57.91864 56.02160 392 ft 3 kts 227°
2026-05-07 17:57 57.91868 56.02170 394 ft 0 kts 228°
2026-05-07 18:00 57.91865 56.02170 393 ft 1 kts 195°
2026-05-07 18:00 57.91843 56.02186 395 ft 6 kts 149°
2026-05-07 18:00 57.91807 56.02245 396 ft 7 kts 136°
2026-05-07 18:00 57.91772 56.02307 393 ft 7 kts 136°
2026-05-07 18:01 57.91739 56.02368 397 ft 7 kts 136°
2026-05-07 18:01 57.91705 56.02429 396 ft 7 kts 135°
2026-05-07 18:01 57.91669 56.02481 397 ft 6 kts 157°
2026-05-07 18:01 57.91620 56.02458 399 ft 10 kts 216°
2026-05-07 18:02 57.91465 56.02164 397 ft 21 kts 226°
2026-05-07 18:02 57.91359 56.01957 393 ft 22 kts 225°
2026-05-07 18:02 57.91253 56.01751 398 ft 22 kts 226°
2026-05-07 18:03 57.91150 56.01552 396 ft 21 kts 226°
2026-05-07 18:03 57.91050 56.01358 392 ft 20 kts 226°
2026-05-07 18:03 57.90958 56.01180 395 ft 12 kts 226°
2026-05-07 18:03 57.90900 56.01066 394 ft 12 kts 226°
2026-05-07 18:04 57.90843 56.00954 391 ft 12 kts 226°
2026-05-07 18:04 57.90788 56.00847 393 ft 11 kts 226°
2026-05-07 18:04 57.90733 56.00742 395 ft 11 kts 225°
2026-05-07 18:04 57.90680 56.00641 395 ft 11 kts 225°
2026-05-07 18:05 57.90625 56.00537 393 ft 11 kts 225°
2026-05-07 18:05 57.90573 56.00436 393 ft 9 kts 226°
2026-05-07 18:05 57.90532 56.00352 392 ft 8 kts 233°
2026-05-07 18:05 57.90514 56.00249 391 ft 8 kts 257°
2026-05-07 18:06 57.90505 56.00207 391 ft 4 kts 236°
2026-05-07 18:06 57.90474 56.00196 392 ft 5 kts 152°
2026-05-07 18:06 57.90471 56.00238 392 ft 3 kts 73°
2026-05-07 18:06 57.90487 56.00270 392 ft 4 kts 43°
2026-05-07 18:07 57.90497 56.00288 391 ft 0 kts 46°
2026-05-07 18:07 57.90507 56.00307 391 ft 14 kts 46°
2026-05-07 18:07 57.90762 56.00800 395 ft 89 kts 46°
2026-05-07 18:08 57.91356 56.01946 398 ft 153 kts 45°
2026-05-07 18:08 57.92173 56.03525 867 ft 167 kts 45°
2026-05-07 18:08 57.92970 56.04962 1980 ft 152 kts 41°
2026-05-07 18:08 57.93734 56.06374 2618 ft 160 kts 45°
2026-05-07 18:09 57.94510 56.07917 3258 ft 164 kts 46°
2026-05-07 18:09 57.95344 56.09479 3874 ft 178 kts 32°
2026-05-07 18:09 57.96626 56.09889 4095 ft 204 kts 345°
2026-05-07 18:09 57.97843 56.08298 4319 ft 229 kts 311°
2026-05-07 18:10 57.98950 56.05887 4535 ft 256 kts 314°
2026-05-07 18:10 58.00223 56.03460 5219 ft 263 kts 317°
2026-05-07 18:10 58.01592 56.01146 6146 ft 264 kts 319°
2026-05-07 18:10 58.03019 55.98946 6967 ft 266 kts 321°
2026-05-07 18:11 58.04497 55.96802 7738 ft 269 kts 321°
2026-05-07 18:11 58.05492 55.95405 8251 ft 271 kts 322°
2026-05-07 18:11 58.07549 55.92598 9300 ft 275 kts 322°
2026-05-07 18:11 58.09096 55.90534 10085 ft 277 kts 321°
2026-05-07 18:12 58.10701 55.88389 10491 ft 293 kts 321°
2026-05-07 18:12 58.12430 55.86077 10681 ft 315 kts 321°
2026-05-07 18:12 58.14125 55.83208 10890 ft 330 kts 305°
2026-05-07 18:12 58.15209 55.79434 11483 ft 332 kts 290°
2026-05-07 18:13 58.16005 55.75324 12267 ft 332 kts 288°
2026-05-07 18:13 58.16766 55.71172 13013 ft 335 kts 287°
2026-05-07 18:13 58.17527 55.66980 13798 ft 337 kts 287°
2026-05-07 18:13 58.18297 55.62767 14511 ft 340 kts 287°
2026-05-07 18:14 58.19080 55.58515 15219 ft 343 kts 287°
2026-05-07 18:14 58.19872 55.54238 15938 ft 345 kts 287°
2026-05-07 18:14 58.20672 55.49927 16648 ft 348 kts 287°
2026-05-07 18:14 58.21481 55.45573 17328 ft 351 kts 287°
2026-05-07 18:15 58.22297 55.41181 18015 ft 355 kts 287°
2026-05-07 18:15 58.23120 55.36745 18632 ft 358 kts 287°
2026-05-07 18:15 58.23947 55.32281 19213 ft 361 kts 287°
2026-05-07 18:15 58.24783 55.27758 19803 ft 363 kts 287°
2026-05-07 18:16 58.25610 55.23273 20365 ft 366 kts 287°
2026-05-07 18:16 58.26453 55.18693 20936 ft 369 kts 287°
2026-05-07 18:16 58.27300 55.14076 21503 ft 371 kts 287°
2026-05-07 18:16 58.28152 55.09424 22047 ft 374 kts 287°
2026-05-07 18:17 58.29008 55.04738 22600 ft 377 kts 287°
2026-05-07 18:17 58.29868 55.00017 23136 ft 380 kts 287°
2026-05-07 18:17 58.30736 54.95248 23642 ft 382 kts 287°
2026-05-07 18:17 58.31605 54.90449 24082 ft 385 kts 287°
2026-05-07 18:18 58.32475 54.85620 24515 ft 387 kts 287°
2026-05-07 18:18 58.33306 54.80736 24949 ft 389 kts 285°
2026-05-07 18:18 58.34109 54.75813 25367 ft 391 kts 285°
2026-05-07 18:18 58.34909 54.70853 25767 ft 393 kts 285°
2026-05-07 18:19 58.35713 54.65852 26166 ft 396 kts 285°
2026-05-07 18:19 58.36521 54.60837 26560 ft 397 kts 285°
2026-05-07 18:19 58.37348 54.55708 26953 ft 400 kts 285°
2026-05-07 18:19 58.38166 54.50639 27332 ft 402 kts 285°
2026-05-07 18:20 58.38988 54.45532 27704 ft 404 kts 285°
2026-05-07 18:20 58.39814 54.40394 28080 ft 406 kts 285°
2026-05-07 18:20 58.40631 54.35299 28431 ft 408 kts 285°
2026-05-07 18:20 58.41463 54.30094 28783 ft 410 kts 285°
2026-05-07 18:21 58.42294 54.24881 29144 ft 411 kts 285°
2026-05-07 18:21 58.43122 54.19670 29657 ft 409 kts 285°
2026-05-07 18:21 58.43940 54.14506 30227 ft 405 kts 285°
2026-05-07 18:21 58.44754 54.09351 30649 ft 404 kts 285°
2026-05-07 18:22 58.45571 54.04164 30999 ft 404 kts 285°
2026-05-07 18:22 58.46108 54.00744 31224 ft 404 kts 285°
2026-05-07 18:22 58.47173 53.93949 31736 ft 402 kts 285°
2026-05-07 18:22 58.47968 53.88848 32144 ft 401 kts 285°
2026-05-07 18:23 58.48763 53.83733 32505 ft 400 kts 285°
2026-05-07 18:23 58.49553 53.78624 32858 ft 399 kts 285°
2026-05-07 18:23 58.50337 53.73544 33233 ft 398 kts 285°
2026-05-07 18:23 58.51118 53.68466 33607 ft 397 kts 284°
2026-05-07 18:24 58.51894 53.63405 33968 ft 396 kts 284°
2026-05-07 18:24 58.52666 53.58360 34267 ft 396 kts 284°
2026-05-07 18:24 58.53429 53.53361 34499 ft 396 kts 284°
2026-05-07 18:24 58.54210 53.48223 34722 ft 397 kts 284°
2026-05-07 18:25 58.54970 53.43209 34983 ft 397 kts 284°
2026-05-07 18:25 58.55738 53.38127 35232 ft 397 kts 284°
2026-05-07 18:25 58.56505 53.33041 35470 ft 397 kts 284°
2026-05-07 18:25 58.57268 53.27959 35701 ft 397 kts 284°
2026-05-07 18:26 58.58042 53.22798 35931 ft 397 kts 284°
2026-05-07 18:26 58.58803 53.17696 36068 ft 400 kts 284°
2026-05-07 18:26 58.59568 53.12555 36069 ft 402 kts 284°
2026-05-07 18:27 58.61095 53.02251 36065 ft 399 kts 284°
2026-05-07 18:27 58.62595 52.92073 36064 ft 395 kts 284°
2026-05-07 18:28 58.64069 52.82007 36067 ft 393 kts 284°
2026-05-07 18:28 58.64937 52.71696 36074 ft 391 kts 270°
2026-05-07 18:29 58.64673 52.61260 36068 ft 391 kts 267°
2026-05-07 18:29 58.64364 52.50816 36071 ft 392 kts 267°
2026-05-07 18:30 58.64069 52.40331 36065 ft 394 kts 267°
2026-05-07 18:30 58.63775 52.29803 36067 ft 396 kts 267°
2026-05-07 18:31 58.63475 52.19287 36070 ft 397 kts 267°
2026-05-07 18:31 58.63212 52.10395 36067 ft 398 kts 267°
2026-05-07 18:32 58.62883 51.99764 36070 ft 399 kts 267°
2026-05-07 18:32 58.62542 51.89127 36066 ft 400 kts 267°
2026-05-07 18:33 58.62194 51.78466 36067 ft 400 kts 266°
2026-05-07 18:33 58.61838 51.67821 36069 ft 399 kts 266°
2026-05-07 18:34 58.61474 51.57190 36066 ft 399 kts 266°
2026-05-07 18:34 58.61103 51.46586 36066 ft 398 kts 266°
2026-05-07 18:35 58.60734 51.36070 36068 ft 397 kts 266°
2026-05-07 18:35 58.60368 51.25482 36066 ft 396 kts 266°
2026-05-07 18:36 58.59995 51.14923 36063 ft 396 kts 266°
2026-05-07 18:36 58.59616 51.04453 36060 ft 396 kts 266°
2026-05-07 18:37 58.59225 50.93915 36060 ft 395 kts 266°
2026-05-07 18:37 58.58826 50.83389 36061 ft 395 kts 266°
2026-05-07 18:38 58.58419 50.72879 36058 ft 395 kts 266°
2026-05-07 18:38 58.58004 50.62367 36055 ft 396 kts 266°
2026-05-07 18:39 58.57580 50.51836 36059 ft 396 kts 266°
2026-05-07 18:39 58.57552 50.41280 36065 ft 396 kts 271°
2026-05-07 18:40 58.57693 50.30755 36060 ft 397 kts 271°
2026-05-07 18:40 58.57796 50.20172 36052 ft 398 kts 271°
2026-05-07 18:41 58.57877 50.09564 36062 ft 399 kts 271°
2026-05-07 18:41 58.57948 49.98787 36065 ft 409 kts 271°
2026-05-07 18:42 58.58014 49.87781 36060 ft 417 kts 270°
2026-05-07 18:42 58.58072 49.76642 36048 ft 418 kts 270°
2026-05-07 18:43 58.58120 49.65557 36041 ft 419 kts 270°
2026-05-07 18:43 58.58159 49.54396 36035 ft 418 kts 270°
2026-05-07 18:44 58.58190 49.43250 36039 ft 417 kts 270°
2026-05-07 18:44 58.58208 49.32125 36038 ft 416 kts 270°
2026-05-07 18:45 58.58212 49.21038 36029 ft 416 kts 270°
2026-05-07 18:45 58.58208 49.09967 36035 ft 415 kts 270°
2026-05-07 18:46 58.58195 48.98924 36033 ft 414 kts 270°
2026-05-07 18:46 58.58173 48.87864 36034 ft 414 kts 270°
2026-05-07 18:47 58.58143 48.76750 36030 ft 414 kts 270°
2026-05-07 18:47 58.58103 48.65712 36031 ft 414 kts 269°
2026-05-07 18:48 58.58058 48.54678 36031 ft 414 kts 269°
2026-05-07 18:48 58.58008 48.43643 36025 ft 414 kts 269°
2026-05-07 18:49 58.57952 48.32705 36020 ft 413 kts 269°
2026-05-07 18:49 58.57877 48.21607 36024 ft 413 kts 269°
2026-05-07 18:50 58.57737 48.10592 36020 ft 413 kts 269°
2026-05-07 18:50 58.57576 47.99649 36028 ft 413 kts 268°
2026-05-07 18:51 58.57413 47.88652 36026 ft 413 kts 268°
2026-05-07 18:51 58.57244 47.77646 36021 ft 413 kts 268°
2026-05-07 18:52 58.57066 47.66642 36034 ft 413 kts 268°
2026-05-07 18:52 58.56880 47.55631 36020 ft 413 kts 268°
2026-05-07 18:53 58.56684 47.44637 36021 ft 412 kts 268°
2026-05-07 18:53 58.56550 47.33648 36023 ft 412 kts 269°
2026-05-07 18:54 58.56439 47.22673 36020 ft 412 kts 269°
2026-05-07 18:54 58.56314 47.11702 36030 ft 412 kts 269°
2026-05-07 18:55 58.56175 47.00775 36020 ft 413 kts 268°
2026-05-07 18:55 58.56023 46.89781 36018 ft 413 kts 268°
2026-05-07 18:56 58.55862 46.78773 36005 ft 413 kts 268°
2026-05-07 18:56 58.55691 46.67794 36017 ft 412 kts 268°
2026-05-07 18:57 58.55512 46.56817 36009 ft 411 kts 268°
2026-05-07 18:57 58.55323 46.45878 36014 ft 411 kts 268°
2026-05-07 18:58 58.55125 46.34913 36007 ft 411 kts 268°
2026-05-07 18:58 58.54918 46.23978 36005 ft 411 kts 268°
2026-05-07 18:59 58.54704 46.13126 36009 ft 411 kts 268°
2026-05-07 18:59 58.54478 46.02188 36010 ft 411 kts 267°
2026-05-07 19:00 58.54243 45.91225 36003 ft 413 kts 267°
2026-05-07 19:00 58.54000 45.80234 35986 ft 413 kts 267°
2026-05-07 19:01 58.53794 45.69272 35997 ft 412 kts 268°
2026-05-07 19:01 58.53697 45.58316 35993 ft 411 kts 268°
2026-05-07 19:02 58.53601 45.47373 35992 ft 411 kts 268°
2026-05-07 19:02 58.53484 45.36441 35988 ft 410 kts 268°
2026-05-07 19:03 58.53351 45.25523 35989 ft 410 kts 268°
2026-05-07 19:03 58.53207 45.14686 35990 ft 410 kts 268°
2026-05-07 19:04 58.53053 45.03775 35984 ft 410 kts 268°
2026-05-07 19:04 58.52890 44.92848 35990 ft 411 kts 268°
2026-05-07 19:05 58.52718 44.81911 35993 ft 412 kts 268°
2026-05-07 19:05 58.52535 44.70948 35989 ft 412 kts 267°
2026-05-07 19:06 58.52344 44.59977 35989 ft 413 kts 267°
2026-05-07 19:06 58.52038 44.43489 35989 ft 413 kts 267°
2026-05-07 19:07 58.51822 44.32497 35983 ft 414 kts 267°
2026-05-07 19:07 58.51597 44.21500 35985 ft 414 kts 267°
2026-05-07 19:08 58.51363 44.10506 35989 ft 414 kts 267°
2026-05-07 19:08 58.51118 43.99500 35982 ft 414 kts 267°
2026-05-07 19:09 58.50867 43.88565 35983 ft 414 kts 267°
2026-05-07 19:09 58.50604 43.77569 35984 ft 414 kts 267°
2026-05-07 19:10 58.50332 43.66576 35986 ft 413 kts 266°
2026-05-07 19:10 58.50051 43.55603 35984 ft 413 kts 266°
2026-05-07 19:11 58.49761 43.44621 35983 ft 413 kts 266°
2026-05-07 19:11 58.49463 43.33654 35983 ft 413 kts 266°
2026-05-07 19:12 58.49148 43.22684 35985 ft 413 kts 266°
2026-05-07 19:12 58.48818 43.11790 35984 ft 413 kts 266°
2026-05-07 19:13 58.48535 43.02619 35983 ft 412 kts 266°
2026-05-07 19:13 58.48133 42.89904 35986 ft 412 kts 266°
2026-05-07 19:14 58.47836 42.80746 35986 ft 412 kts 266°
2026-05-07 19:14 58.47472 42.69778 35982 ft 412 kts 266°
2026-05-07 19:15 58.47099 42.58845 35979 ft 412 kts 266°
2026-05-07 19:15 58.46717 42.47908 35981 ft 412 kts 266°
2026-05-07 19:16 58.46326 42.36977 35981 ft 412 kts 265°
2026-05-07 19:16 58.45927 42.26059 35981 ft 412 kts 265°
2026-05-07 19:17 58.45519 42.15127 35980 ft 412 kts 265°
2026-05-07 19:17 58.45101 42.04261 35974 ft 412 kts 265°
2026-05-07 19:18 58.44670 41.93346 35980 ft 412 kts 265°
2026-05-07 19:18 58.44231 41.82437 35979 ft 412 kts 265°
2026-05-07 19:19 58.43784 41.71544 35975 ft 412 kts 265°
2026-05-07 19:19 58.43327 41.60635 35980 ft 412 kts 265°
2026-05-07 19:20 58.42861 41.49736 35980 ft 412 kts 265°
2026-05-07 19:20 58.42387 41.38843 35975 ft 412 kts 265°
2026-05-07 19:21 58.41903 41.27963 35976 ft 411 kts 265°
2026-05-07 19:21 58.41411 41.17085 35974 ft 411 kts 264°
2026-05-07 19:22 58.40909 41.06220 35971 ft 411 kts 264°
2026-05-07 19:22 58.40402 40.95438 35971 ft 411 kts 264°
2026-05-07 19:23 58.39884 40.84604 35974 ft 410 kts 264°
2026-05-07 19:23 58.39356 40.73769 35970 ft 410 kts 264°
2026-05-07 19:24 58.38819 40.62944 35974 ft 410 kts 264°
2026-05-07 19:24 58.38274 40.52136 35969 ft 409 kts 264°
2026-05-07 19:25 58.37721 40.41354 35970 ft 409 kts 264°
2026-05-07 19:25 58.37160 40.30588 35969 ft 408 kts 264°
2026-05-07 19:26 58.36589 40.19824 35969 ft 408 kts 264°
2026-05-07 19:26 58.36011 40.09075 35972 ft 407 kts 264°
2026-05-07 19:27 58.35425 39.98351 35966 ft 407 kts 264°
2026-05-07 19:27 58.34835 39.87694 35968 ft 407 kts 264°
2026-05-07 19:28 58.34058 39.77044 35952 ft 407 kts 253°
2026-05-07 19:28 58.31465 39.67468 35958 ft 412 kts 236°
2026-05-07 19:29 58.27341 39.59807 35960 ft 417 kts 225°
2026-05-07 19:29 58.22967 39.52576 35956 ft 417 kts 225°
2026-05-07 19:30 58.18658 39.45428 35936 ft 401 kts 226°
2026-05-07 19:30 58.14500 39.38477 35943 ft 397 kts 226°
2026-05-07 19:31 58.10366 39.31550 35954 ft 396 kts 226°
2026-05-07 19:31 58.06246 39.24666 35950 ft 395 kts 226°
2026-05-07 19:32 58.02148 39.17843 35953 ft 395 kts 226°
2026-05-07 19:32 57.98011 39.10980 35876 ft 398 kts 226°
2026-05-07 19:33 57.95915 39.07507 35598 ft 403 kts 226°
2026-05-07 19:33 57.93808 39.04026 35346 ft 402 kts 226°
2026-05-07 19:33 57.91716 39.00581 35094 ft 397 kts 226°
2026-05-07 19:33 57.89644 38.97173 34846 ft 394 kts 226°
2026-05-07 19:34 57.87577 38.93776 34598 ft 394 kts 226°
2026-05-07 19:34 57.85518 38.90395 34365 ft 393 kts 226°
2026-05-07 19:34 57.83457 38.87016 34122 ft 392 kts 227°
2026-05-07 19:34 57.81401 38.83650 33879 ft 391 kts 227°
2026-05-07 19:35 57.79349 38.80296 33591 ft 391 kts 227°
2026-05-07 19:35 57.77302 38.76955 33315 ft 391 kts 226°
2026-05-07 19:35 57.75250 38.73610 32698 ft 390 kts 226°
2026-05-07 19:35 57.73218 38.70310 32312 ft 385 kts 226°
2026-05-07 19:36 57.71199 38.67032 31870 ft 381 kts 226°
2026-05-07 19:36 57.69199 38.63790 31417 ft 378 kts 226°
2026-05-07 19:36 57.67248 38.60627 30990 ft 374 kts 226°
2026-05-07 19:36 57.65259 38.57409 30557 ft 372 kts 225°
2026-05-07 19:37 57.63335 38.54303 30138 ft 369 kts 225°
2026-05-07 19:37 57.61403 38.51189 29672 ft 366 kts 225°
2026-05-07 19:37 57.59488 38.48112 29238 ft 362 kts 225°
2026-05-07 19:37 57.57591 38.45069 28794 ft 360 kts 225°
2026-05-07 19:38 57.55689 38.42017 28357 ft 361 kts 225°
2026-05-07 19:38 57.53785 38.38964 27925 ft 362 kts 225°
2026-05-07 19:38 57.51866 38.35892 27476 ft 364 kts 225°
2026-05-07 19:38 57.49942 38.32816 27044 ft 365 kts 224°
2026-05-07 19:39 57.48020 38.29750 26584 ft 362 kts 224°
2026-05-07 19:39 57.46117 38.26721 26147 ft 358 kts 224°
2026-05-07 19:39 57.44254 38.23759 25725 ft 355 kts 224°
2026-05-07 19:39 57.42383 38.20787 25306 ft 352 kts 224°
2026-05-07 19:40 57.40526 38.17841 24884 ft 350 kts 224°
2026-05-07 19:40 57.38685 38.14924 24468 ft 347 kts 224°
2026-05-07 19:40 57.36852 38.12023 24061 ft 345 kts 224°
2026-05-07 19:40 57.35027 38.09137 23645 ft 344 kts 224°
2026-05-07 19:41 57.33211 38.06270 23180 ft 342 kts 224°
2026-05-07 19:41 57.31405 38.03423 22713 ft 340 kts 224°
2026-05-07 19:41 57.29614 38.00604 22290 ft 337 kts 224°
2026-05-07 19:41 57.27832 37.97804 21884 ft 334 kts 224°
2026-05-07 19:42 57.26065 37.95029 21454 ft 332 kts 224°
2026-05-07 19:42 57.24316 37.92287 21060 ft 329 kts 224°
2026-05-07 19:42 57.22598 37.89595 20667 ft 326 kts 224°
2026-05-07 19:42 57.20870 37.86892 20262 ft 324 kts 224°
2026-05-07 19:43 57.19152 37.84207 19870 ft 322 kts 223°
2026-05-07 19:43 57.17448 37.81547 19477 ft 320 kts 223°
2026-05-07 19:43 57.15748 37.78895 19080 ft 318 kts 223°
2026-05-07 19:43 57.14057 37.76263 18692 ft 317 kts 223°
2026-05-07 19:44 57.12374 37.73650 18300 ft 316 kts 223°
2026-05-07 19:44 57.10644 37.71149 17869 ft 317 kts 215°
2026-05-07 19:44 57.08673 37.69422 17542 ft 319 kts 207°
2026-05-07 19:44 57.06616 37.67905 17190 ft 318 kts 206°
2026-05-07 19:45 57.04532 37.66408 16856 ft 317 kts 206°
2026-05-07 19:45 57.02511 37.64954 16540 ft 316 kts 206°
2026-05-07 19:45 57.00464 37.63469 16206 ft 317 kts 206°
2026-05-07 19:45 56.98418 37.61973 15896 ft 317 kts 206°
2026-05-07 19:46 56.96373 37.60473 15570 ft 315 kts 206°
2026-05-07 19:46 56.94347 37.58983 15261 ft 313 kts 207°
2026-05-07 19:46 56.92327 37.57494 14943 ft 312 kts 207°
2026-05-07 19:46 56.90308 37.56008 14622 ft 311 kts 207°
2026-05-07 19:47 56.88304 37.54532 14319 ft 310 kts 207°
2026-05-07 19:47 56.86303 37.53059 13997 ft 309 kts 207°
2026-05-07 19:47 56.84310 37.51593 13687 ft 308 kts 207°
2026-05-07 19:47 56.82321 37.50132 13329 ft 308 kts 207°
2026-05-07 19:48 56.80347 37.48685 12997 ft 303 kts 207°
2026-05-07 19:48 56.78406 37.47264 12685 ft 298 kts 207°
2026-05-07 19:48 56.76496 37.45866 12377 ft 293 kts 207°
2026-05-07 19:48 56.74612 37.44488 12083 ft 290 kts 207°
2026-05-07 19:49 56.72746 37.43122 11793 ft 287 kts 207°
2026-05-07 19:49 56.70902 37.41776 11500 ft 284 kts 207°
2026-05-07 19:49 56.69077 37.40447 11211 ft 280 kts 207°
2026-05-07 19:49 56.67279 37.39139 10939 ft 276 kts 207°
2026-05-07 19:50 56.65541 37.37848 10715 ft 270 kts 208°
2026-05-07 19:50 56.63808 37.36533 10525 ft 263 kts 208°
2026-05-07 19:50 56.62155 37.35274 10282 ft 259 kts 208°
2026-05-07 19:50 56.60506 37.34020 10059 ft 254 kts 208°
2026-05-07 19:51 56.58890 37.32795 9841 ft 251 kts 208°
2026-05-07 19:51 56.57282 37.31577 9585 ft 251 kts 208°
2026-05-07 19:51 56.55669 37.30358 9334 ft 252 kts 208°
2026-05-07 19:51 56.54047 37.29134 9076 ft 252 kts 208°
2026-05-07 19:52 56.52419 37.27954 8929 ft 251 kts 206°
2026-05-07 19:52 56.50779 37.26906 8742 ft 253 kts 197°
2026-05-07 19:52 56.48976 37.27144 8575 ft 269 kts 171°
2026-05-07 19:52 56.47252 37.28658 8388 ft 282 kts 154°
2026-05-07 19:53 56.45625 37.30712 8185 ft 287 kts 152°
2026-05-07 19:53 56.44010 37.32859 7987 ft 290 kts 151°
2026-05-07 19:53 56.42928 37.34306 7862 ft 292 kts 151°
2026-05-07 19:53 56.41289 37.36491 7650 ft 293 kts 151°
2026-05-07 19:54 56.39657 37.38655 7442 ft 289 kts 151°
2026-05-07 19:54 56.37524 37.41465 7173 ft 284 kts 151°
2026-05-07 19:54 56.35926 37.43556 6986 ft 284 kts 151°
2026-05-07 19:54 56.34842 37.44968 6868 ft 284 kts 150°
2026-05-07 19:55 56.33233 37.47059 6658 ft 285 kts 150°
2026-05-07 19:55 56.31630 37.49140 6484 ft 284 kts 150°
2026-05-07 19:55 56.30036 37.51206 6282 ft 280 kts 150°
2026-05-07 19:55 56.28468 37.53240 6096 ft 276 kts 150°
2026-05-07 19:56 56.26918 37.55245 5876 ft 272 kts 150°
2026-05-07 19:56 56.25412 37.57194 5695 ft 263 kts 150°
2026-05-07 19:56 56.23946 37.59081 5520 ft 256 kts 150°
2026-05-07 19:56 56.22517 37.60927 5338 ft 248 kts 150°
2026-05-07 19:57 56.21124 37.62719 5178 ft 245 kts 150°
2026-05-07 19:57 56.19736 37.64483 5043 ft 244 kts 150°
2026-05-07 19:57 56.18349 37.66258 4849 ft 246 kts 149°
2026-05-07 19:57 56.16964 37.68044 4694 ft 244 kts 149°
2026-05-07 19:58 56.15604 37.69798 4539 ft 244 kts 149°
2026-05-07 19:58 56.14223 37.71575 4385 ft 243 kts 148°
2026-05-07 19:58 56.12831 37.73370 4231 ft 244 kts 149°
2026-05-07 19:58 56.11467 37.75104 4086 ft 243 kts 149°
2026-05-07 19:59 56.10052 37.76755 3852 ft 239 kts 161°
2026-05-07 19:59 56.08509 37.77209 3695 ft 214 kts 188°
2026-05-07 19:59 56.07113 37.76670 3536 ft 198 kts 200°
2026-05-07 19:59 56.05824 37.75920 3420 ft 193 kts 201°
2026-05-07 20:00 56.04558 37.75176 3290 ft 190 kts 200°
2026-05-07 20:00 56.03309 37.74447 3167 ft 188 kts 202°
2026-05-07 20:00 56.02285 37.73128 3021 ft 180 kts 242°
2026-05-07 20:00 56.01851 37.71104 2930 ft 171 kts 247°
2026-05-07 20:01 56.01409 37.69166 2801 ft 167 kts 248°
2026-05-07 20:01 56.01053 37.67201 2712 ft 166 kts 255°
2026-05-07 20:01 56.00716 37.65194 2700 ft 174 kts 250°
2026-05-07 20:01 56.00370 37.63087 2592 ft 179 kts 254°
2026-05-07 20:02 56.00066 37.60988 2397 ft 172 kts 253°
2026-05-07 20:02 55.99759 37.59016 2316 ft 166 kts 252°
2026-05-07 20:02 55.99475 37.56990 2057 ft 164 kts 254°
2026-05-07 20:02 55.99175 37.55041 1838 ft 161 kts 252°
2026-05-07 20:03 55.98885 37.53141 1683 ft 156 kts 253°
2026-05-07 20:03 55.98614 37.51352 1427 ft 144 kts 253°
2026-05-07 20:03 55.98361 37.49661 1266 ft 142 kts 255°
2026-05-07 20:03 55.98103 37.47944 1077 ft 144 kts 255°
2026-05-07 20:04 55.97844 37.46215 896 ft 144 kts 256°
2026-05-07 20:04 55.97587 37.44492 683 ft 142 kts 256°
2026-05-07 20:04 55.97347 37.42878 640 ft 119 kts 255°
2026-05-07 20:04 55.97172 37.41707 642 ft 76 kts 255°
2026-05-07 20:05 55.97074 37.41054 640 ft 39 kts 255°
2026-05-07 20:05 55.97020 37.40702 638 ft 21 kts 254°
2026-05-07 20:05 55.96961 37.40494 641 ft 20 kts 233°
2026-05-07 20:05 55.96909 37.40383 639 ft 10 kts 225°
2026-05-07 20:06 55.96862 37.40300 642 ft 8 kts 225°
2026-05-07 20:06 55.96825 37.40234 638 ft 7 kts 223°
2026-05-07 20:06 55.96789 37.40171 638 ft 7 kts 225°
2026-05-07 20:06 55.96755 37.40109 646 ft 7 kts 225°
2026-05-07 20:07 55.96722 37.40047 644 ft 7 kts 232°
2026-05-07 20:07 55.96700 37.39954 640 ft 10 kts 253°
2026-05-07 20:07 55.96661 37.39866 642 ft 10 kts 192°
2026-05-07 20:07 55.96598 37.39888 642 ft 5 kts 167°
2026-05-07 20:08 55.96566 37.39902 638 ft 5 kts 165°
2026-05-07 20:08 55.96535 37.39916 644 ft 5 kts 166°
2026-05-07 20:08 55.96505 37.39931 638 ft 4 kts 162°
2026-05-07 20:08 55.96485 37.39970 638 ft 4 kts 105°
2026-05-07 20:09 55.96490 37.40025 638 ft 4 kts 75°
2026-05-07 20:09 55.96498 37.40077 641 ft 3 kts 74°
2026-05-07 20:09 55.96501 37.40095 642 ft 0 kts 75°